Regional Weather Roundup
Issued by NWS Mt. Holly, NJ

Home | Current Version | Previous Version | Text Only | Print | Product List | Glossary On
Versions: 1 2 3 4 5 6 7 8 9 10 11 12 13 14 15 16 17 18 19 20 21 22 23 24 25 26 27 28 29 30 31 32 33 34 35 36 37 38 39 40 41 42 43 44 45 46 47 48 49 50
217
ASUS41 KPHI 231312
RWRPHI

REGIONAL WEATHER ROUNDUP
NATIONAL WEATHER SERVICE MOUNT HOLLY NJ
900 AM EDT SAT JUL 23 2016

NOTE:  "FAIR" INDICATES FEW OR NO CLOUDS BELOW 12,000 FEET WITH NO
SIGNIFICANT WEATHER AND/OR OBSTRUCTIONS TO VISIBILITY.

 * = STATION DOES NOT REPORT PRECIPITATION (E.G. RAIN, SNOW, ETC.)
        OR FOG.

NJZ015>026-231400-
SOUTHERN NEW JERSEY

CITY           SKY/WX    TMP DP  RH WIND       PRES   REMARKS
POMONA         SUNNY     84  71  65 W12       29.91S
WILDWOOD*      SUNNY     84  75  74 NW6       29.93S HX  92
MILLVILLE      SUNNY     86  72  62 W10       29.92S HX  92
WRIGHTSTOWN    SUNNY     85  72  65 W9        29.87S HX  90
MOUNT HOLLY    SUNNY     85  71  63 W5        29.90S HX  90
TRENTON        SUNNY     84  71  65 VRB7      29.90S

$$
NJZ001>014-231400-
NORTHERN NEW JERSEY

CITY           SKY/WX    TMP DP  RH WIND       PRES   REMARKS
SUSSEX         SUNNY     82  65  56 VRB6      29.88S
ANDOVER*         N/A     80  67  64 VRB5      29.90F
MORRISTOWN     SUNNY     82  63  51 W9        29.87F
NEWARK         MOSUNNY   87  65  47 W14       29.86S
TETERBORO      SUNNY     85  65  51 W9        29.85S
CALDWELL       SUNNY     85  65  51 W9        29.87S
SOMERVILLE     SUNNY     84  68  58 VRB3      29.87S
ALLAIRE*       SUNNY     86  70  58 W8        29.90S HX  90
TOMS RIVER*    SUNNY     86  72  62 W8        29.90S HX  92

$$
PAZ043-044-047-054-055-060>062-066>071-231400-
EASTERN PENNSYLVANIA

CITY           SKY/WX    TMP DP  RH WIND       PRES   REMARKS
PHILADELPHIA   MOSUNNY   86  70  58 W10       29.91S HX  90
NORTH PHILA    SUNNY     87  72  60 NW8       29.92S HX  93
BLUE BELL*     SUNNY     82  72  69 CALM      29.91S
DOYLESTOWN     SUNNY     83  70  64 W7        29.91S
QUAKERTOWN*    SUNNY     84  72  65 CALM      29.93S
PERKASIE*      FAIR      82  72  69 W7        29.93S
POTTSTOWN      SUNNY     84  70  62 W6        29.93S
LANCASTER      SUNNY     81  72  74 NW7       29.93S
COATESVILLE    SUNNY     82  73  74 VRB6      29.96S
READING        SUNNY     86  69  56 W13G18    29.91S HX  90
ALLENTOWN      SUNNY     84  71  65 W7        29.91S
MOUNT POCONO   SUNNY     74  32  21 W12       29.97S
HAZLETON       SUNNY     79  66  65 W5        30.00S
LEHIGHTON      FAIR      81  70  69 CALM      29.93S
WILKES BARRE   SUNNY     81  64  56 SW9       29.93S

$$
DEZALL-MDZ008-012-015-019-020-231400-
DELAWARE AND EASTERN MARYLAND

CITY           SKY/WX    TMP DP  RH WIND       PRES   REMARKS
WILMINGTON     MOSUNNY   85  72  65 W9        29.93S HX  91
DOVER          SUNNY     85  76  73 W12       29.91F HX  95
GEORGETOWN     SUNNY     85  74  69 VRB6      29.93F HX  92
EASTON         SUNNY     86  77  74 N3        29.97F HX  97
PATUXENT       SUNNY     85  71  63 NW7       29.94S HX  90
OCEAN CITY     SUNNY     85  75  72 NW8       29.93S HX  93
WALLOPS ISLAND FAIR      86  77  74 W7        29.94S HX  97
CAMBRIDGE      SUNNY     84  72  65 NW7       29.93S
SALISBURY      SUNNY     85  75  72 NW9       29.93S HX  93

$$
PAZ001-021-NYZ056-072-MDZ011-DCZ001-231400-
OTHER NEARBY LOCATIONS

CITY           SKY/WX    TMP DP  RH WIND       PRES   REMARKS
HARRISBURG     MOSUNNY   84  73  69 NW8       29.93R HX  90
STATE COLLEGE  CLOUDY    77  70  78 SW12      29.99S
WILLIAMSPORT   SUNNY     82  68  62 W9        29.91F
BINGHAMTON     SUNNY     76  58  53 NW8       29.93F
NEW YORK CITY  SUNNY     84  64  50 NW9       29.89S
BALTIMORE      SUNNY     87  70  56 W10       29.94S HX  92
WASHINGTON DC  FAIR      87  69  54 NW13      29.96R HX  91

$$




USA.gov is the U.S. government's official web portal to all federal, state and local government web resources and services.